Dayton Wright, OH

4:40 PM EDT on June 26, 2017 (GMT -0400)
Dayton-Wright Brothers

Weather History for KMGY - May, 2013

Change the Weather History Date:

Friday, May 31, 2013

  Actual Average (KFFO) Record (KFFO)
Temperature  
Mean Temperature 74 °F -  
Max Temperature 82 °F 71 °F 91 °F (2011)
Min Temperature 66 °F 52 °F 48 °F (2005)
Cooling Degree Days 8    
Growing Degree Days 24 (Base 50)    
Moisture  
Dew Point 65 °F    
Average Humidity 81    
Maximum Humidity 93    
Minimum Humidity 58    
Precipitation  
Precipitation 0.76 in - - ()
Sea Level Pressure  
Sea Level Pressure 30.00 in    
Wind  
Wind Speed 11 mph (SSW)    
Max Wind Speed 33 mph    
Max Gust Speed 50 mph    
Visibility 8 miles    
Events Fog , Rain , Thunderstorm    
Averages and records for this station are not official NWS values.
T = Trace of Precipitation, MM = Missing Value Source: NWS Daily Summary

Daily Weather History Graph

Daily Weather History Graph

Search for Another Location

Airport or City:

Trip Planner

Search our weather history database for the weather conditions in past years. The results will help you decide how hot, cold, wet, or windy it might be!

Date:

Astronomy

May. 31, 2013 Rise Set
Actual Time 6:11 AM EDT 8:57 PM EDT
Civil Twilight 5:39 AM EDT 9:29 PM EDT
Nautical Twilight 5:00 AM EDT 10:09 PM EDT
Astronomical Twilight 4:14 AM EDT 10:55 PM EDT
Moon 1:33 AM EDT (5/31) 1:24 PM EDT (5/31)
Length of Visible Light 15h 49m
Length of Day
14h 46m
Waning Gibbous, 51% of the Moon is Illuminated
May 31
Waning Gibbous
May 31
Last Quarter
Jun 8
New
Jun 16
First Quarter
Jun 23
Full

Hourly Weather History & Observations

Time (EDT) Temp. Heat Index Dew Point Humidity Pressure Visibility Wind Dir Wind Speed Gust Speed Precip Events Conditions
12:53 AM 73.0 °F - 63.0 °F 71% 30.05 in 10.0 mi South 9.2 mph - N/A   Clear
1:53 AM 72.0 °F - 63.0 °F 73% 30.05 in 10.0 mi South 8.1 mph - N/A   Clear
2:53 AM 70.0 °F - 62.1 °F 76% 30.04 in 10.0 mi South 6.9 mph - N/A   Clear
3:53 AM 70.0 °F - 62.1 °F 76% 30.03 in 10.0 mi South 5.8 mph - N/A   Clear
4:53 AM 69.1 °F - 62.1 °F 78% 30.02 in 10.0 mi South 6.9 mph - N/A   Clear
5:53 AM 69.1 °F - 62.1 °F 78% 30.02 in 10.0 mi South 6.9 mph - N/A   Partly Cloudy
6:53 AM 71.1 °F - 63.0 °F 75% 30.03 in 10.0 mi South 8.1 mph - N/A   Mostly Cloudy
7:53 AM 73.0 °F - 63.0 °F 71% 30.04 in 10.0 mi South 11.5 mph 18.4 mph N/A   Mostly Cloudy
8:53 AM 73.9 °F - 63.0 °F 68% 30.04 in 10.0 mi South 13.8 mph 19.6 mph N/A   Scattered Clouds
9:53 AM 75.0 °F - 63.0 °F 66% 30.04 in 10.0 mi SSW 16.1 mph 21.9 mph N/A   Mostly Cloudy
10:53 AM 80.1 °F 81.9 °F 64.9 °F 60% 30.02 in 10.0 mi SSW 15.0 mph 24.2 mph N/A   Scattered Clouds
11:53 AM 81.0 °F 83.0 °F 66.0 °F 60% 30.02 in 10.0 mi SSW 15.0 mph 24.2 mph N/A   Mostly Cloudy
12:38 PM 80.6 °F 82.3 °F 64.4 °F 58% 30.03 in 10.0 mi SSW 12.7 mph 29.9 mph N/A Thunderstorm Mostly Cloudy
12:53 PM 81.0 °F 83.0 °F 66.0 °F 60% 30.00 in 10.0 mi SSW 15.0 mph 27.6 mph N/A   Mostly Cloudy
1:53 PM 80.1 °F 82.3 °F 66.9 °F 64% 29.99 in 10.0 mi South 15.0 mph - 0.00 in   Mostly Cloudy
2:53 PM 75.9 °F - 66.9 °F 74% 29.98 in 10.0 mi South 15.0 mph 32.2 mph N/A   Mostly Cloudy
3:02 PM 75.2 °F - 68.0 °F 78% 30.00 in 2.5 mi WSW 15.0 mph - 0.09 in Rain , Thunderstorm Heavy Thunderstorms and Rain
3:09 PM 73.4 °F - 66.2 °F 78% 29.99 in 3.0 mi WSW 9.2 mph 19.6 mph 0.10 in Rain , Thunderstorm Light Thunderstorms and Rain
3:21 PM 75.2 °F - 68.0 °F 78% 29.99 in 10.0 mi South 4.6 mph - 0.10 in   Mostly Cloudy
3:31 PM 75.2 °F - 69.8 °F 83% 30.02 in 6.0 mi South 27.6 mph 49.5 mph 0.12 in Rain , Thunderstorm Light Rain
3:33 PM 73.4 °F - 68.0 °F 83% 30.04 in 1.2 mi SSW 33.4 mph 49.5 mph 0.21 in Rain , Thunderstorm Heavy Thunderstorms and Rain
3:38 PM 66.2 °F - 62.6 °F 88% 30.03 in 0.5 mi SW 25.3 mph 49.5 mph 0.34 in Fog , Rain , Thunderstorm Heavy Thunderstorms and Rain
3:45 PM 66.2 °F - 62.6 °F 88% 30.03 in 1.0 mi SSW 13.8 mph 34.5 mph 0.37 in Rain , Thunderstorm Thunderstorms and Rain
3:50 PM 66.2 °F - 62.6 °F 88% 30.03 in 3.0 mi SSW 12.7 mph 24.2 mph 0.38 in Rain , Thunderstorm Thunderstorms and Rain
3:53 PM 66.0 °F - 64.0 °F 93% 30.02 in 4.0 mi SSW 11.5 mph 19.6 mph 0.39 in Rain , Thunderstorm Thunderstorms and Rain
4:34 PM 68.0 °F - 64.4 °F 88% 30.00 in 10.0 mi South 6.9 mph - 0.07 in Rain Light Rain
4:53 PM 69.1 °F - 66.0 °F 90% 29.98 in 10.0 mi South 3.5 mph - 0.07 in   Mostly Cloudy
5:50 PM 69.8 °F - 66.2 °F 88% 30.00 in 1.8 mi SW 12.7 mph 29.9 mph 0.13 in Rain Heavy Rain
5:51 PM 69.1 °F - 66.0 °F 90% 29.98 in 1.8 mi SSW 15.0 mph 29.9 mph 0.13 in Rain Heavy Rain
6:00 PM 69.8 °F - 66.2 °F 88% 30.00 in 3.0 mi SSW 10.4 mph 24.2 mph 0.03 in Rain Light Rain
6:21 PM 69.8 °F - 66.2 °F 88% 29.99 in 4.0 mi South 9.2 mph - 0.09 in Rain Rain
6:51 PM 69.8 °F - 66.2 °F 88% 29.99 in 8.0 mi SSW 12.7 mph 25.3 mph 0.15 in Rain Light Rain
6:53 PM 69.1 °F - 66.0 °F 90% 29.98 in 8.0 mi SSW 12.7 mph 21.9 mph 0.15 in Rain Light Rain
7:02 PM 69.8 °F - 66.2 °F 88% 29.99 in 10.0 mi SSW 12.7 mph 19.6 mph 0.00 in Rain Light Rain
7:09 PM 69.8 °F - 66.2 °F 88% 29.99 in 10.0 mi SSW 10.4 mph 18.4 mph 0.01 in Rain Light Rain
7:16 PM 69.8 °F - 66.2 °F 88% 29.98 in 7.0 mi SSW 11.5 mph - 0.01 in Rain Light Rain
7:27 PM 69.8 °F - 66.2 °F 88% 29.98 in 9.0 mi SSW 9.2 mph - 0.02 in Rain Light Rain
7:53 PM 70.0 °F - 66.9 °F 90% 29.95 in 10.0 mi SSW 10.4 mph - 0.02 in   Partly Cloudy
8:53 PM 70.0 °F - 66.9 °F 90% 29.95 in 10.0 mi South 6.9 mph - N/A   Partly Cloudy
9:53 PM 69.1 °F - 66.9 °F 93% 29.95 in 10.0 mi South 6.9 mph - N/A   Clear
10:53 PM 69.1 °F - 66.0 °F 90% 29.96 in 10.0 mi South 4.6 mph - N/A   Clear
11:53 PM 68.0 °F - 66.0 °F 93% 29.96 in 10.0 mi South 5.8 mph - N/A   Clear